Theta_e
322 321 321 320 319 319 318 318 318 318 318 317 316 316 316 316 316 316 316 314 314 313 312 313 313 312 307 298 299 306 320 324 317 313 302 303 303 304 300 302 299 299 301 305 302 304 304
322 322 321 320 319 319 318 318 318 317 316 316 316 315 315 315 315 316 316 315 313 313 312 312 313 311 302 293 306 315 323 318 314 307 303 304 303 304 300 298 298 300 299 301 302 302 303
321 322 321 320 319 319 319 318 317 317 316 316 315 315 314 314 315 315 315 315 314 312 312 312 314 308 301 298 309 317 318 314 313 305 301 305 306 304 301 297 301 300 297 299 299 301 301
321 321 321 320 319 319 318 318 316 316 316 315 315 315 314 314 313 314 314 315 314 312 312 313 315 307 299 310 312 311 313 312 310 308 305 305 307 305 303 302 299 296 297 295 300 300 302
320 320 320 319 318 318 318 316 315 314 315 315 315 314 314 313 314 314 314 314 313 312 312 314 309 304 299 314 310 313 311 306 305 306 307 306 304 302 302 298 295 295 292 293 297 300 300
318 319 319 318 318 317 316 315 315 315 314 314 314 314 314 313 313 314 313 312 312 314 312 311 309 300 305 306 312 311 310 306 303 303 301 301 300 298 298 296 288 292 291 293 295 298 300
318 318 318 318 318 317 315 315 314 314 314 315 314 313 313 313 313 313 310 307 304 302 304 301 302 301 306 310 312 308 307 304 304 301 295 298 295 293 297 298 297 297 295 294 296 299 298
316 316 317 316 316 316 315 315 314 313 314 314 313 313 313 313 313 312 309 301 305 304 300 304 305 305 308 309 303 306 308 302 299 293 298 296 294 299 300 299 297 296 294 294 296 298 298
315 315 315 315 315 314 315 314 313 314 313 313 312 312 312 313 312 309 305 303 309 307 299 302 304 301 302 308 305 302 306 303 298 296 297 294 297 300 298 296 296 295 294 294 294 297 298
315 314 314 314 313 314 314 314 314 313 313 312 311 311 311 312 306 305 302 308 310 308 296 298 302 304 309 310 304 306 308 304 299 296 297 297 299 298 297 295 297 293 298 297 296 295 291
312 314 313 313 313 313 313 313 313 313 312 311 311 311 311 311 305 302 307 309 309 304 286 301 302 312 310 304 303 300 307 306 299 297 297 295 296 296 295 296 298 296 299 298 296 294 293
310 311 313 312 313 313 312 312 313 312 312 310 310 311 310 307 307 308 309 310 304 293 287 297 303 301 303 302 302 300 302 307 304 299 298 298 301 300 299 299 300 300 297 295 294 294 289
308 309 311 312 312 312 312 312 312 312 311 310 310 309 307 309 304 310 309 304 294 289 303 296 297 301 301 299 298 297 297 298 297 293 292 296 297 300 301 299 301 298 296 289 287 288 287
307 308 309 311 311 312 311 312 311 311 310 309 308 307 307 308 310 310 307 300 289 297 297 304 299 300 297 299 299 296 295 294 298 299 294 291 289 298 302 299 297 298 296 290 282 284 288
308 308 307 308 310 311 311 311 310 310 309 307 307 307 307 309 310 309 302 293 293 298 302 300 300 295 296 299 298 297 295 295 299 300 294 292 292 301 301 303 302 297 294 296 291 291 290
308 309 308 309 310 311 311 311 310 310 309 307 302 304 310 312 311 309 302 294 299 305 304 303 294 297 294 296 296 297 296 300 299 301 302 298 292 299 300 302 302 300 301 294 295 286 284
307 308 309 308 308 309 310 311 310 309 308 306 302 306 311 312 310 307 298 297 301 305 305 302 298 297 297 296 297 295 296 300 302 300 302 300 297 295 299 296 296 297 296 295 296 294 288
306 307 308 309 308 309 310 311 310 308 306 305 301 300 311 312 302 304 299 301 301 302 305 303 302 300 298 298 297 297 296 299 303 303 298 299 297 292 292 296 298 297 296 297 293 290 293
306 306 307 308 309 309 310 310 309 308 307 301 299 299 312 311 299 300 301 300 303 301 300 301 299 301 300 297 295 298 298 301 302 301 300 300 294 289 289 294 296 294 296 296 296 295 292
305 306 307 309 310 309 310 309 308 308 307 304 298 298 303 307 305 301 299 299 299 302 298 299 298 300 299 296 298 296 297 300 302 302 302 302 294 292 289 288 294 291 293 295 294 289 289
305 305 307 309 311 310 310 309 307 307 307 304 301 298 298 297 297 298 301 298 296 296 299 300 298 298 298 294 294 294 297 298 300 299 298 299 292 292 291 292 292 291 291 292 291 292 288
305 306 307 309 310 310 310 309 307 308 307 303 298 296 300 298 299 297 297 296 296 295 297 296 297 295 297 296 296 294 296 297 297 298 297 296 291 292 290 291 291 290 292 292 292 292 292
305 305 307 308 309 309 309 310 309 309 307 301 303 303 298 297 297 296 296 297 298 298 298 299 298 297 296 295 298 299 299 300 301 298 295 295 294 291 287 290 289 286 290 292 292 294 293
305 306 306 306 307 308 309 309 309 309 309 303 302 301 297 294 296 295 297 297 296 297 296 297 299 298 298 301 300 300 299 298 299 297 299 295 294 292 287 288 280 290 295 295 293 295 296
305 306 305 305 305 307 308 308 309 309 309 305 304 301 297 294 296 296 296 295 297 298 296 296 297 298 302 297 293 290 291 292 293 295 296 297 294 288 286 285 288 290 295 295 294 294 300
305 305 305 305 304 305 306 307 308 308 308 306 303 303 301 294 295 297 296 295 295 295 295 296 299 300 299 294 291 284 284 288 289 291 295 295 297 292 285 282 281 291 298 301 300 289 300
304 304 304 304 304 305 305 306 306 307 308 307 304 303 301 296 300 298 295 294 295 295 294 296 297 297 297 292 289 286 286 291 289 289 288 290 291 288 286 285 289 296 298 302 287 291 300
304 305 305 305 305 305 305 305 305 306 307 307 304 304 302 297 296 299 299 297 296 296 294 295 295 295 292 289 288 288 288 291 290 292 291 289 287 286 288 284 282 299 298 293 298 301 301
304 304 304 305 305 305 305 305 305 306 306 307 302 303 304 299 298 301 302 303 302 300 296 294 294 294 293 291 290 291 289 289 289 287 294 290 294 291 292 292 298 302 301 303 304 301 302
Wind_Speed
13 13 13 14 14 13 13 12 12 13 13 13 14 14 14 13 13 13 10 8 9 9 8 7 3 5 3 3 15 7 11 20 20 17 14 14 21 15 16 13 11 19 17 12 13 24 14
14 13 12 12 12 12 12 12 11 12 12 13 14 15 15 14 13 12 12 8 7 8 7 7 5 6 3 8 4 12 3 21 21 21 18 14 15 10 13 14 21 12 16 17 16 15 10
16 14 12 11 12 12 13 12 12 12 13 11 13 14 14 14 14 14 13 10 8 7 7 8 8 6 6 17 2 8 9 12 22 19 21 13 11 9 10 6 12 8 7 10 13 13 9
15 13 11 11 11 12 12 13 13 14 14 14 15 12 12 13 15 15 14 13 11 9 8 8 10 5 10 4 4 7 5 10 14 11 14 7 7 5 3 5 5 12 5 10 7 12 8
15 13 12 12 12 12 11 12 13 16 17 15 16 13 13 14 15 15 13 14 13 9 8 9 7 4 11 7 5 9 7 15 13 9 8 6 4 6 4 7 4 3 8 9 5 13 4
14 14 13 13 13 11 11 13 14 14 17 18 17 14 14 13 14 13 10 12 4 5 7 5 3 4 8 2 4 10 5 20 10 11 11 9 5 6 4 7 12 12 8 5 9 5 6
15 14 14 14 13 12 12 13 14 15 18 19 19 16 14 12 12 10 4 2 2 3 7 11 7 5 3 6 9 6 8 15 9 6 8 9 9 16 18 11 5 7 5 8 3 4 1
18 17 16 15 16 13 14 14 15 19 18 19 20 19 16 13 12 9 4 5 5 4 7 21 7 11 8 4 4 11 17 8 13 14 7 9 12 9 9 7 4 4 3 5 2 3 5
16 17 17 16 15 14 14 14 19 18 19 18 20 19 16 15 10 4 10 14 2 11 5 3 9 7 6 10 7 15 16 9 14 12 11 12 5 10 7 6 7 4 6 5 6 1 3
18 17 17 16 16 15 14 16 19 19 20 20 19 19 16 14 5 2 5 6 15 5 3 6 7 7 7 6 5 10 14 7 4 9 8 7 5 12 7 8 7 6 10 10 8 3 5
21 20 17 17 17 15 13 16 19 21 21 20 18 18 16 8 3 4 1 3 7 5 4 8 5 4 7 6 14 7 6 4 9 8 6 5 9 10 7 9 10 5 5 9 5 7 4
22 22 20 18 19 17 13 15 17 21 23 26 22 18 15 6 5 8 2 6 2 5 3 4 6 7 9 4 4 7 9 5 3 6 1 5 1 3 3 6 10 10 5 4 3 3 7
22 22 21 20 20 19 18 15 16 21 22 26 28 23 11 5 4 5 7 4 4 4 4 7 7 9 12 7 7 9 14 11 7 8 9 3 2 1 2 5 3 4 5 4 5 6 4
21 21 22 20 20 21 21 15 17 21 22 26 31 25 4 11 7 2 3 4 4 1 3 7 7 13 10 10 4 8 15 12 3 5 6 9 7 2 2 4 5 4 4 4 5 4 2
21 19 21 21 19 19 21 15 19 22 24 29 24 1 3 5 8 5 3 3 2 3 6 4 2 12 8 8 6 6 11 14 7 6 5 7 5 1 4 2 2 5 5 3 5 2 4
22 22 20 21 20 21 21 17 18 22 25 27 6 4 3 6 14 3 3 4 3 1 4 4 9 11 9 5 7 4 7 4 7 2 1 5 6 2 3 1 11 1 8 4 2 5 7
23 23 21 19 21 20 20 17 18 22 26 24 3 1 3 8 6 2 4 4 2 2 7 5 1 4 12 8 5 2 2 3 2 3 2 4 2 3 3 4 3 5 4 4 2 2 4
23 24 22 23 19 20 19 16 18 21 23 7 5 1 3 6 3 3 4 3 4 6 11 7 5 5 4 6 6 5 7 1 1 4 6 2 4 4 3 4 4 1 2 4 4 6 3
23 24 23 24 19 19 19 14 17 20 17 6 6 3 1 3 4 3 2 5 7 4 3 8 7 3 1 4 7 2 5 3 1 3 6 6 2 6 4 4 2 1 2 3 6 2 7
22 22 23 25 19 18 14 14 18 20 20 2 3 2 0 1 1 7 6 7 7 8 2 3 3 3 4 4 6 6 6 5 3 6 10 5 3 2 5 4 3 4 6 6 4 3 4
21 20 21 23 18 15 14 16 21 20 19 2 0 2 2 2 2 3 2 3 5 3 2 3 4 4 5 4 4 5 4 5 7 4 5 3 4 2 4 5 2 3 6 9 11 10 8
20 21 21 24 19 16 16 16 21 20 16 1 4 4 4 4 4 2 5 7 3 1 3 2 6 4 3 5 2 7 6 2 3 4 3 3 4 2 2 2 3 8 11 12 14 14 16
20 19 19 21 22 17 14 15 15 17 12 3 2 1 2 4 3 2 2 1 11 6 6 5 11 7 11 6 8 10 6 6 6 5 4 3 6 3 1 2 4 11 11 14 8 9 9
20 20 18 18 19 19 16 15 15 15 10 2 2 2 3 3 2 2 5 2 6 1 7 3 6 5 3 8 9 8 11 9 7 8 3 7 6 2 3 3 5 4 2 2 7 8 11
20 19 17 16 18 17 18 15 15 15 12 3 2 2 3 4 4 3 7 7 7 9 6 7 6 4 6 4 3 4 3 2 3 6 3 1 5 4 3 5 8 2 1 3 5 4 5
22 20 18 17 16 17 16 14 14 13 14 4 2 1 2 3 2 4 3 2 2 4 4 5 4 3 4 3 2 4 4 4 5 4 4 5 3 3 2 3 4 2 3 2 3 7 7
22 21 18 18 18 17 16 15 11 14 12 5 2 2 2 3 1 4 3 2 1 3 4 3 2 3 3 2 2 2 3 0 7 8 7 5 3 7 5 4 5 2 2 4 5 3 5
19 20 20 18 16 16 15 14 12 13 12 6 3 1 3 2 5 3 4 2 1 1 3 4 4 2 2 3 2 3 2 2 2 5 5 7 8 5 6 5 6 4 5 4 5 3 6
19 19 20 18 14 15 14 14 12 11 11 10 2 1 1 3 4 3 4 4 3 2 4 3 3 3 2 4 2 3 3 3 3 4 1 5 2 4 6 1 2 1 2 6 5 10 12
Wind_Direction
312 311 323 332 335 331 329 325 320 320 327 325 326 327 323 317 315 316 312 313 315 310 305 299 190 149 138 222 253 285 324 181 181 171 177 169 167 170 180 178 153 226 232 256 261 270 269
331 323 321 331 325 322 321 324 329 329 330 331 333 332 326 320 315 313 314 305 300 299 291 280 191 167 171 244 247 323 181 152 171 172 183 174 177 181 167 176 200 206 219 199 251 253 267
345 341 335 322 325 326 325 330 335 333 331 329 328 325 330 324 321 317 312 311 293 287 275 258 187 189 230 247 262 14 120 168 173 177 178 192 173 183 129 136 206 192 183 217 224 250 244
347 345 338 341 335 331 330 332 338 339 331 326 321 322 319 317 314 313 312 309 302 283 258 235 190 208 254 237 300 203 148 140 168 163 180 174 153 147 185 147 122 183 212 219 194 203 233
354 353 353 346 341 336 334 339 342 335 326 322 320 319 318 317 312 308 309 309 301 271 219 204 174 219 264 308 224 207 178 148 153 132 163 157 172 182 182 167 141 169 190 205 210 195 144
354 354 349 341 335 338 341 338 335 327 322 320 321 320 317 313 309 309 318 321 334 142 155 168 218 256 248 215 163 136 138 147 148 131 120 167 184 190 183 180 192 179 200 211 197 153 172
352 349 341 339 337 344 331 332 329 323 322 318 317 320 317 310 305 302 333 310 179 169 220 206 185 251 312 340 134 141 144 140 138 159 164 173 187 197 193 194 193 173 189 197 184 156 237
349 346 342 342 343 343 334 329 326 327 319 317 313 316 316 306 295 279 204 232 240 6 267 225 243 260 279 275 141 144 159 147 154 174 159 157 202 194 165 172 157 163 202 230 256 249 211
341 339 338 339 339 334 330 331 329 321 319 316 314 316 312 305 303 248 217 224 246 12 256 180 195 225 238 175 166 170 181 144 162 161 177 171 186 159 157 156 175 189 220 232 248 76 220
333 332 333 333 330 325 328 333 325 321 318 314 320 318 310 310 280 201 235 254 236 257 270 173 197 232 179 207 144 155 183 157 151 157 157 180 123 160 157 179 184 210 216 231 237 202 251
334 333 329 326 318 319 328 326 321 318 315 316 316 314 307 280 291 230 2 281 141 186 181 144 155 131 151 186 134 169 179 128 158 145 185 147 173 161 180 197 184 220 172 211 226 197 188
338 335 333 326 325 320 318 315 319 321 318 319 316 313 313 260 207 236 124 85 169 230 166 167 137 158 162 174 113 130 165 91 105 131 90 133 190 175 150 146 184 146 127 93 110 158 232
338 334 332 331 328 325 319 314 326 323 320 319 317 315 291 194 210 156 184 164 181 228 307 148 161 159 171 162 125 145 170 168 165 162 177 157 175 41 163 157 147 166 168 186 211 214 253
342 338 331 330 334 330 327 321 332 323 322 326 321 315 210 206 212 231 157 216 247 132 116 274 159 161 177 163 133 150 161 178 132 147 159 187 183 217 131 218 194 185 212 213 221 219 233
340 340 337 330 327 327 324 326 332 329 326 329 323 6 196 213 200 177 199 230 223 344 117 310 130 157 142 160 135 144 179 182 173 177 162 168 162 80 61 128 221 149 198 51 120 79 248
334 338 339 333 328 325 324 325 334 333 331 330 320 312 254 123 167 168 233 262 346 89 46 252 187 186 183 171 142 135 165 167 161 204 274 162 139 81 120 240 54 337 129 157 144 217 241
338 338 337 337 331 327 331 331 345 339 337 326 285 283 32 135 182 207 251 243 356 89 204 283 330 110 159 191 125 133 279 19 133 110 121 130 175 132 214 20 146 149 161 73 79 251 253
337 335 337 335 333 328 328 334 348 343 340 358 314 191 100 167 171 167 230 119 12 273 255 273 331 40 121 150 132 132 143 131 154 141 144 77 109 121 87 9 270 30 140 179 207 192 230
342 338 334 335 324 331 328 340 350 343 354 318 318 285 139 220 207 134 233 145 260 249 274 161 204 208 68 110 102 106 110 20 24 114 150 171 104 143 157 165 106 148 112 102 97 63 218
344 336 339 336 333 325 341 356 353 338 346 269 296 304 325 176 12 138 214 216 216 194 146 151 163 94 113 80 48 131 117 40 34 90 67 93 102 212 247 78 128 172 167 160 148 185 236
344 339 343 339 351 11 5 0 351 342 342 273 220 27 67 278 126 146 178 311 316 164 113 39 83 84 123 107 82 103 113 130 68 29 59 65 110 114 110 122 163 219 221 213 233 244 241
340 341 346 349 344 357 358 354 356 346 345 342 355 353 345 281 292 201 159 217 179 192 343 78 123 87 63 123 150 170 139 134 136 69 72 26 109 110 114 141 238 267 254 245 243 249 254
341 340 347 352 350 351 353 354 355 352 353 343 348 271 279 303 335 258 182 228 149 176 39 42 125 103 83 78 82 80 68 80 125 134 112 97 137 133 197 53 334 274 264 231 232 231 249
340 339 343 347 348 348 350 0 359 354 14 291 307 288 309 302 344 9 315 103 135 117 134 61 56 93 101 117 106 71 56 63 71 59 58 131 117 97 127 159 236 62 177 337 224 253 224
341 341 339 339 344 345 344 351 352 354 4 337 307 335 313 298 328 344 16 94 90 67 74 75 42 41 131 79 98 107 84 127 53 39 45 48 127 127 207 209 321 249 108 173 210 277 271
338 337 336 335 336 334 337 342 344 346 355 344 295 301 290 304 42 313 329 8 87 94 69 83 68 49 63 71 116 182 182 150 150 123 67 100 54 166 156 227 245 103 124 143 175 255 18
337 335 335 338 338 334 331 332 343 340 351 339 287 345 275 290 314 342 33 20 27 77 87 116 99 94 2 103 121 168 166 173 162 165 154 156 145 209 196 248 270 178 166 187 241 36 337
333 337 339 329 332 335 330 330 346 333 344 344 295 344 330 299 293 338 355 51 90 29 130 137 145 86 97 119 188 161 186 140 164 133 165 163 164 186 197 222 246 154 162 237 24 324 293
332 335 332 328 331 331 336 329 337 328 334 342 274 154 303 244 309 307 291 302 330 15 117 43 59 119 121 112 187 144 149 173 161 174 155 187 216 182 204 226 101 181 9 309 325 308 299